Hourly Data Report for October 01, 2017

All times are specified in Local Standard Time (LST). Add 1 hour to adjust for Daylight Saving Time where and when it is observed.

BERENS RIVER CS
MANITOBA

52°21'35.052" N
97°01'19.032" W
221.90 m
5030203
71158
WCF

Download Data

Hourly Data (October 2017)
Hourly Data Report for October 1, 2017
Temp Definition
°C
Dew Point Temp Definition
°C
Rel Hum Definition
%
Wind Dir Definition
10's deg

Wind Spd Definition
km/h
Visibility Definition
km
Stn Press Definition
kPa
Hmdx Definition


Wind Chill Definition


Weather Definition


TIME
00:00 16.1 9.7 66 14 19   98.20     LegendNANA
01:00 14.1 10.9 81 14 21   98.14     LegendNANA
02:00 13.5 11.1 85 13 20   98.10     LegendNANA
03:00 13.6 10.7 83 12 20   98.00     LegendNANA
04:00 12.8 11.0 89 12 22   97.92     LegendNANA
05:00 12.6 10.9 90 12 21   97.87     LegendNANA
06:00 12.6 10.8 89 13 20   97.84     LegendNANA
07:00 13.1 10.6 85 13 19   97.82     LegendNANA
08:00 13.9 10.4 79 13 21   97.83     LegendNANA
09:00 14.2 10.5 78 13 19   97.85     LegendNANA
10:00 14.9 10.5 75 14 16   97.85     LegendNANA
11:00 17.3 10.4 64 15 19   97.79     LegendNANA
12:00 18.2 10.4 60 15 18   97.77     LegendNANA
13:00 18.2 10.5 61 17 18   97.74     LegendNANA
14:00 18.2 11.0 63 13 21   97.68     LegendNANA
15:00 17.7 11.2 66 14 12   97.63     LegendNANA
16:00 16.9 11.2 69 13 17   97.64     LegendNANA
17:00 16.0 11.5 74 14 16   97.66     LegendNANA
18:00 14.5 12.3 87 13 13   97.68     LegendNANA
19:00 13.8 12.5 92 11 14   97.68     LegendNANA
20:00 13.6 12.4 93 11 11   97.65     LegendNANA
21:00 13.4 12.4 93 12 10   97.66     LegendNANA
22:00 13.4 12.3 93 12 9   97.67     LegendNANA
23:00 13.2 12.4 95 12 8   97.65     LegendNANA

Notes on Data Quality.

Legend

  • E = Estimated
  • M = Missing
  • NA = Not Available
  • ‡ = Partner data that is not subject to review by the National Climate Archives
Date modified: